Weather in Peshcherka

Russia / Altai Krai     54°05′37″N   84°46′45″E
temp.,
°C
wind,
m/s
gust,
m/s
humid.,
%
clouds,
%
prec.,
mm/h
press.,
hPa
HPBL,
m
6 march, sat
sat601:00−5sw91778100 0.1 10211076
04:00−6sw91790100 0.4 1021947
07:00−7sw71780100 0.7 1021767
10:00−6sw81777100 0.0 1020812
13:00−4sw101872100 0.0 1018977
16:00−3sw91773100 0.0 10161156
19:00−4sw71681100 0.0 10151006
22:00−4sw71592100 0.2 1015871
7 march, sun
sun701:00−4sw71495100 1.0 1015768
04:00−4sw71395100 1.1 1014744
07:00−4sw51196100 2.2 1016620
10:00−4sw5995100 0.8 1018506
13:00−3wsw5794100 1.4 1020603
16:00−2wsw5793100 0.4 1021630
19:00−4w2396100 1.0 102259
22:00−7ssw1198100 0.3 102424
8 march, mon
mon801:00−7s2397100 0.4 102441
04:00−8se349799 0.1 102277
07:00−9se379799 0.2 1021139
10:00−7sse4891100 0.0 1018236
13:00−2sse51087100 0.0 1015372
16:000s51489100 0.0 10121063
19:00−1ssw61682100 0.0 1011768
22:00−1sw71686100 0.0 10121045
9 march, tue
tue901:00−1wsw81491100 0.8 10151172
04:00−10w5128975 0.1 1020381
07:00−13wsw4109669 0.1 1024273
10:00−11wsw51093100 0.0 1027444
13:00−9wsw468690 0.0 1029499
16:00−7ssw34820 0.0 1028519
19:00−10se239025 0.0 102725
22:00−12se479387 0.0 1025123
10 march, wed
wed1001:00−12se369179 0.0 1022101
04:00−9sse369394 0.4 1019118
07:00−4s499697 0.9 1017386
10:00−2s5996100 0.2 1017460
13:000s5896100 0.3 1015483
16:000ssw479999 0.0 1014504
19:00−2se2298100 0.1 101124
22:00−2ese4897100 0.0 1008262